ENGINEERING TRACK TESTING
Weather & Rail Temperature Monitoring
Weather station FRAZER
Frazer Interlocking (Frazer, PA)
Measurement History
![]() ENGINEERING TRACK TESTING Weather station FRAZER Frazer Interlocking (Frazer, PA) Measurement History ![]() |
Conditions for past 24 hours (since 09/01/2026 01:29 AM)
| Time | Track 1 S rail | Track 1 N rail | Track 4 S rail | Track 4 N rail | Outside Air Temperature |
Solar Radiation |
Max. Wind | Humidity | Air Pressure | Rain | |
| Speed | Dir | ||||||||||
| 09/02/2026 01:15 AM | 70 °F | 70 °F | 71 °F | 71 °F | 71.3 °F | 0 watt/m2 | 2 mph | W | 96 % | 30.112 in Hg | 0 in |
| 09/02/2026 01:00 AM | 70 °F | 70 °F | 71 °F | 72 °F | 71.3 °F | 0 watt/m2 | 4 mph | WSW | 96 % | 30.118 in Hg | 0 in |
| 09/02/2026 12:45 AM | 71 °F | 70 °F | 71 °F | 72 °F | 71.4 °F | 0 watt/m2 | 3 mph | SW | 96 % | 30.12 in Hg | 0 in |
| 09/02/2026 12:30 AM | 71 °F | 71 °F | 71 °F | 72 °F | 71.6 °F | 0 watt/m2 | 3 mph | SSW | 96 % | 30.116 in Hg | 0 in |
| 09/02/2026 12:15 AM | 71 °F | 71 °F | 72 °F | 72 °F | 71.7 °F | 0 watt/m2 | 3 mph | W | 96 % | 30.113 in Hg | 0 in |
| 09/02/2026 12:00 AM | 71 °F | 71 °F | 71 °F | 72 °F | 71.8 °F | 0 watt/m2 | 3 mph | WSW | 96 % | 30.115 in Hg | 0 in |
| 09/01/2026 11:45 PM | 71 °F | 71 °F | 72 °F | 72 °F | 71.7 °F | 0 watt/m2 | 3 mph | WSW | 96 % | 30.111 in Hg | 0 in |
| 09/01/2026 11:30 PM | 71 °F | 71 °F | 72 °F | 72 °F | 71.4 °F | 0 watt/m2 | 3 mph | SW | 95 % | 30.095 in Hg | 0 in |
| 09/01/2026 11:15 PM | 71 °F | 71 °F | 72 °F | 72 °F | 71.2 °F | 0 watt/m2 | 3 mph | E | 95 % | 30.083 in Hg | 0 in |
| 09/01/2026 11:00 PM | 71 °F | 71 °F | 72 °F | 73 °F | 71 °F | 0 watt/m2 | 2 mph | E | 95 % | 30.094 in Hg | 0 in |
| 09/01/2026 10:45 PM | 72 °F | 71 °F | 72 °F | 73 °F | 71.2 °F | 0 watt/m2 | 4 mph | E | 95 % | 30.066 in Hg | 0 in |
| 09/01/2026 10:30 PM | 72 °F | 72 °F | 73 °F | 74 °F | 71.4 °F | 0 watt/m2 | 3 mph | E | 94 % | 30.072 in Hg | 0 in |
| 09/01/2026 10:15 PM | 72 °F | 72 °F | 73 °F | 74 °F | 71.3 °F | 0 watt/m2 | 2 mph | E | 94 % | 30.074 in Hg | 0 in |
| 09/01/2026 10:00 PM | 73 °F | 72 °F | 74 °F | 75 °F | 71.2 °F | 0 watt/m2 | 3 mph | SE | 94 % | 30.065 in Hg | 0 in |
| 09/01/2026 09:45 PM | 73 °F | 73 °F | 74 °F | 75 °F | 71.1 °F | 0 watt/m2 | 4 mph | WSW | 93 % | 30.041 in Hg | 0 in |
| 09/01/2026 09:30 PM | 73 °F | 73 °F | 75 °F | 76 °F | 71.3 °F | 0 watt/m2 | 4 mph | E | 93 % | 30.043 in Hg | 0 in |
| 09/01/2026 09:15 PM | 74 °F | 73 °F | 75 °F | 76 °F | 71.3 °F | 0 watt/m2 | 4 mph | SE | 93 % | 30.041 in Hg | 0 in |
| 09/01/2026 09:00 PM | 74 °F | 74 °F | 76 °F | 78 °F | 71.7 °F | 0 watt/m2 | 6 mph | W | 91 % | 30.028 in Hg | 0 in |
| 09/01/2026 08:45 PM | 75 °F | 75 °F | 77 °F | 79 °F | 72.2 °F | 0 watt/m2 | 4 mph | WSW | 90 % | 30.029 in Hg | 0 in |
| 09/01/2026 08:30 PM | 78 °F | 77 °F | 79 °F | 81 °F | 73.5 °F | 0 watt/m2 | 16 mph | WSW | 88 % | 30.035 in Hg | 0 in |
| 09/01/2026 08:15 PM | 81 °F | 81 °F | 83 °F | 84 °F | 76.6 °F | 0 watt/m2 | 11 mph | N | 88 % | 30.044 in Hg | 0 in |
| 09/01/2026 08:00 PM | 88 °F | 88 °F | 89 °F | 90 °F | 82.4 °F | 0 watt/m2 | 6 mph | NW | 85 % | 30.016 in Hg | 0 in |
| 09/01/2026 07:45 PM | 91 °F | 91 °F | 93 °F | 93 °F | 84.2 °F | 0 watt/m2 | 3 mph | E | 82 % | 29.988 in Hg | 0 in |
| 09/01/2026 07:30 PM | 93 °F | 93 °F | 95 °F | 95 °F | 85 °F | 4 watt/m2 | 2 mph | W | 80 % | 29.977 in Hg | 0 in |
| 09/01/2026 07:15 PM | 95 °F | 95 °F | 97 °F | 97 °F | 85.2 °F | 13 watt/m2 | 3 mph | W | 78 % | 29.998 in Hg | 0 in |
| 09/01/2026 07:00 PM | 97 °F | 97 °F | 98 °F | 99 °F | 86.4 °F | 29 watt/m2 | 3 mph | W | 76 % | 29.986 in Hg | 0 in |
| 09/01/2026 06:45 PM | 99 °F | 98 °F | 100 °F | 100 °F | 87.1 °F | 63 watt/m2 | 4 mph | WSW | 75 % | 29.998 in Hg | 0 in |
| 09/01/2026 06:30 PM | 100 °F | 99 °F | 101 °F | 101 °F | 87.7 °F | 144 watt/m2 | 6 mph | W | 74 % | 30.004 in Hg | 0 in |
| 09/01/2026 06:15 PM | 101 °F | 100 °F | 101 °F | 102 °F | 87 °F | 123 watt/m2 | 6 mph | W | 74 % | 29.993 in Hg | 0 in |
| 09/01/2026 06:00 PM | 102 °F | 101 °F | 103 °F | 103 °F | 87 °F | 92 watt/m2 | 6 mph | WSW | 74 % | 29.989 in Hg | 0 in |
| 09/01/2026 05:45 PM | 104 °F | 103 °F | 104 °F | 105 °F | 87.7 °F | 126 watt/m2 | 6 mph | W | 72 % | 29.998 in Hg | 0 in |
| 09/01/2026 05:30 PM | 105 °F | 104 °F | 105 °F | 106 °F | 88.1 °F | 244 watt/m2 | 10 mph | W | 72 % | 30.004 in Hg | 0 in |
| 09/01/2026 05:15 PM | 106 °F | 105 °F | 106 °F | 107 °F | 88.4 °F | 234 watt/m2 | 8 mph | WSW | 72 % | 29.999 in Hg | 0 in |
| 09/01/2026 05:00 PM | 106 °F | 105 °F | 106 °F | 107 °F | 88.5 °F | 423 watt/m2 | 12 mph | WSW | 71 % | 29.998 in Hg | 0 in |
| 09/01/2026 04:45 PM | 106 °F | 105 °F | 106 °F | 107 °F | 88.6 °F | 440 watt/m2 | 9 mph | W | 70 % | 30.005 in Hg | 0 in |
| 09/01/2026 04:30 PM | 105 °F | 105 °F | 106 °F | 107 °F | 88.3 °F | 464 watt/m2 | 12 mph | W | 71 % | 30.002 in Hg | 0 in |
| 09/01/2026 04:15 PM | 105 °F | 105 °F | 107 °F | 107 °F | 87.5 °F | 271 watt/m2 | 9 mph | WSW | 73 % | 30.008 in Hg | 0 in |
| 09/01/2026 04:00 PM | 107 °F | 107 °F | 108 °F | 109 °F | 87.1 °F | 183 watt/m2 | 8 mph | SSW | 72 % | 30.013 in Hg | 0 in |
| 09/01/2026 03:45 PM | 109 °F | 109 °F | 110 °F | 110 °F | 87.2 °F | 187 watt/m2 | 9 mph | WSW | 73 % | 30.011 in Hg | 0 in |
| 09/01/2026 03:30 PM | 110 °F | 110 °F | 111 °F | 112 °F | 88 °F | 488 watt/m2 | 11 mph | W | 72 % | 30.021 in Hg | 0 in |
| 09/01/2026 03:15 PM | 109 °F | 110 °F | 110 °F | 112 °F | 87.8 °F | 561 watt/m2 | 12 mph | W | 71 % | 30.02 in Hg | 0 in |
| 09/01/2026 03:00 PM | 108 °F | 109 °F | 109 °F | 111 °F | 87.6 °F | 684 watt/m2 | 14 mph | W | 71 % | 30.025 in Hg | 0 in |
| 09/01/2026 02:45 PM | 105 °F | 107 °F | 108 °F | 109 °F | 87.2 °F | 752 watt/m2 | 14 mph | W | 71 % | 30.027 in Hg | 0 in |
| 09/01/2026 02:30 PM | 103 °F | 105 °F | 107 °F | 108 °F | 86.5 °F | 505 watt/m2 | 11 mph | W | 74 % | 30.032 in Hg | 0 in |
| 09/01/2026 02:15 PM | 101 °F | 105 °F | 105 °F | 107 °F | 86.2 °F | 375 watt/m2 | 9 mph | W | 73 % | 30.035 in Hg | 0 in |
| 09/01/2026 02:00 PM | 99 °F | 103 °F | 104 °F | 105 °F | 86.7 °F | 755 watt/m2 | 8 mph | W | 72 % | 30.031 in Hg | 0 in |
| 09/01/2026 01:45 PM | 95 °F | 100 °F | 101 °F | 102 °F | 85.2 °F | 613 watt/m2 | 10 mph | WNW | 76 % | 30.029 in Hg | 0 in |
| 09/01/2026 01:30 PM | 94 °F | 96 °F | 97 °F | 98 °F | 84.7 °F | 737 watt/m2 | 10 mph | W | 77 % | 30.038 in Hg | 0 in |
| 09/01/2026 01:15 PM | 92 °F | 91 °F | 93 °F | 94 °F | 83.5 °F | 756 watt/m2 | 6 mph | W | 79 % | 30.042 in Hg | 0 in |
| 09/01/2026 01:00 PM | 87 °F | 87 °F | 88 °F | 89 °F | 81.3 °F | 329 watt/m2 | 6 mph | W | 82 % | 30.055 in Hg | 0 in |
| 09/01/2026 12:45 PM | 85 °F | 86 °F | 87 °F | 87 °F | 80.8 °F | 267 watt/m2 | 5 mph | WSW | 85 % | 30.061 in Hg | 0 in |
| 09/01/2026 12:30 PM | 84 °F | 84 °F | 86 °F | 86 °F | 79.9 °F | 210 watt/m2 | 6 mph | W | 85 % | 30.06 in Hg | 0 in |
| 09/01/2026 12:15 PM | 83 °F | 83 °F | 85 °F | 85 °F | 79.4 °F | 99 watt/m2 | 1 mph | WSW | 88 % | 30.072 in Hg | 0 in |
| 09/01/2026 12:00 PM | 83 °F | 83 °F | 85 °F | 85 °F | 79.4 °F | 104 watt/m2 | 3 mph | WSW | 88 % | 30.076 in Hg | 0 in |
| 09/01/2026 11:45 AM | 83 °F | 84 °F | 85 °F | 86 °F | 79.5 °F | 104 watt/m2 | 4 mph | WSW | 86 % | 30.065 in Hg | 0.01 in |
| 09/01/2026 11:30 AM | 84 °F | 84 °F | 86 °F | 87 °F | 79.9 °F | 191 watt/m2 | 6 mph | W | 84 % | 30.07 in Hg | 0 in |
| 09/01/2026 11:15 AM | 83 °F | 84 °F | 86 °F | 86 °F | 79.7 °F | 102 watt/m2 | 6 mph | W | 84 % | 30.069 in Hg | 0 in |
| 09/01/2026 11:00 AM | 83 °F | 84 °F | 86 °F | 86 °F | 79.9 °F | 176 watt/m2 | 7 mph | W | 83 % | 30.07 in Hg | 0 in |
| 09/01/2026 10:45 AM | 82 °F | 82 °F | 84 °F | 85 °F | 79.2 °F | 584 watt/m2 | 8 mph | WSW | 86 % | 30.07 in Hg | 0 in |
| 09/01/2026 10:30 AM | 81 °F | 81 °F | 82 °F | 83 °F | 77.6 °F | 210 watt/m2 | 7 mph | W | 88 % | 30.072 in Hg | 0 in |
| 09/01/2026 10:15 AM | 80 °F | 80 °F | 81 °F | 82 °F | 76.8 °F | 186 watt/m2 | 7 mph | WSW | 89 % | 30.075 in Hg | 0 in |
| 09/01/2026 10:00 AM | 78 °F | 78 °F | 80 °F | 80 °F | 76.2 °F | 241 watt/m2 | 4 mph | WSW | 91 % | 30.08 in Hg | 0 in |
| 09/01/2026 09:45 AM | 77 °F | 77 °F | 78 °F | 79 °F | 75.5 °F | 153 watt/m2 | 7 mph | W | 91 % | 30.077 in Hg | 0 in |
| 09/01/2026 09:30 AM | 76 °F | 76 °F | 78 °F | 78 °F | 75.2 °F | 82 watt/m2 | 8 mph | WSW | 91 % | 30.076 in Hg | 0 in |
| 09/01/2026 09:15 AM | 76 °F | 76 °F | 77 °F | 78 °F | 75.4 °F | 57 watt/m2 | 7 mph | WSW | 91 % | 30.081 in Hg | 0 in |
| 09/01/2026 09:00 AM | 76 °F | 76 °F | 77 °F | 78 °F | 75.8 °F | 59 watt/m2 | 7 mph | W | 90 % | 30.081 in Hg | 0 in |
| 09/01/2026 08:45 AM | 75 °F | 76 °F | 77 °F | 77 °F | 76.2 °F | 96 watt/m2 | 8 mph | W | 90 % | 30.078 in Hg | 0 in |
| 09/01/2026 08:30 AM | 75 °F | 75 °F | 76 °F | 76 °F | 76 °F | 158 watt/m2 | 9 mph | W | 90 % | 30.086 in Hg | 0 in |
| 09/01/2026 08:15 AM | 73 °F | 74 °F | 75 °F | 75 °F | 75.4 °F | 210 watt/m2 | 8 mph | WSW | 92 % | 30.082 in Hg | 0 in |
| 09/01/2026 08:00 AM | 72 °F | 72 °F | 73 °F | 74 °F | 74.5 °F | 173 watt/m2 | 4 mph | W | 94 % | 30.08 in Hg | 0 in |
| 09/01/2026 07:45 AM | 71 °F | 71 °F | 72 °F | 73 °F | 73.7 °F | 76 watt/m2 | 7 mph | W | 95 % | 30.083 in Hg | 0 in |
| 09/01/2026 07:30 AM | 71 °F | 71 °F | 72 °F | 72 °F | 73.5 °F | 66 watt/m2 | 6 mph | WSW | 95 % | 30.089 in Hg | 0 in |
| 09/01/2026 07:15 AM | 70 °F | 70 °F | 71 °F | 71 °F | 72.6 °F | 41 watt/m2 | 6 mph | W | 96 % | 30.081 in Hg | 0 in |
| 09/01/2026 07:00 AM | 70 °F | 70 °F | 71 °F | 71 °F | 72.2 °F | 19 watt/m2 | 6 mph | W | 96 % | 30.084 in Hg | 0 in |
| 09/01/2026 06:45 AM | 70 °F | 70 °F | 70 °F | 71 °F | 72.1 °F | 3 watt/m2 | 4 mph | W | 96 % | 30.085 in Hg | 0 in |
| 09/01/2026 06:30 AM | 70 °F | 70 °F | 71 °F | 71 °F | 72.1 °F | 0 watt/m2 | 5 mph | WSW | 96 % | 30.086 in Hg | 0 in |
| 09/01/2026 06:15 AM | 70 °F | 70 °F | 70 °F | 71 °F | 71.8 °F | 0 watt/m2 | 4 mph | SW | 96 % | 30.085 in Hg | 0 in |
| 09/01/2026 06:00 AM | 70 °F | 70 °F | 70 °F | 71 °F | 71.3 °F | 0 watt/m2 | 3 mph | WSW | 96 % | 30.086 in Hg | 0 in |
| 09/01/2026 05:45 AM | 70 °F | 70 °F | 70 °F | 71 °F | 71.3 °F | 0 watt/m2 | 2 mph | SE | 95 % | 30.087 in Hg | 0 in |
| 09/01/2026 05:30 AM | 70 °F | 70 °F | 71 °F | 71 °F | 71.5 °F | 0 watt/m2 | 2 mph | W | 95 % | 30.087 in Hg | 0 in |
| 09/01/2026 05:15 AM | 70 °F | 70 °F | 71 °F | 71 °F | 71.5 °F | 0 watt/m2 | 2 mph | W | 95 % | 30.083 in Hg | 0 in |
| 09/01/2026 05:00 AM | 70 °F | 70 °F | 71 °F | 71 °F | 71.4 °F | 0 watt/m2 | 1 mph | W | 95 % | 30.09 in Hg | 0 in |
| 09/01/2026 04:45 AM | 70 °F | 70 °F | 71 °F | 71 °F | 71.4 °F | 0 watt/m2 | 2 mph | WSW | 95 % | 30.097 in Hg | 0 in |
| 09/01/2026 04:30 AM | 70 °F | 70 °F | 71 °F | 71 °F | 71.3 °F | 0 watt/m2 | 3 mph | SW | 94 % | 30.096 in Hg | 0 in |
| 09/01/2026 04:15 AM | 70 °F | 70 °F | 71 °F | 71 °F | 71.3 °F | 0 watt/m2 | 2 mph | W | 94 % | 30.097 in Hg | 0 in |
| 09/01/2026 04:00 AM | 70 °F | 70 °F | 71 °F | 71 °F | 71.5 °F | 0 watt/m2 | 3 mph | W | 94 % | 30.091 in Hg | 0 in |
| 09/01/2026 03:45 AM | 70 °F | 70 °F | 71 °F | 71 °F | 71.6 °F | 0 watt/m2 | 2 mph | WSW | 94 % | 30.088 in Hg | 0 in |
| 09/01/2026 03:30 AM | 70 °F | 70 °F | 71 °F | 71 °F | 71.7 °F | 0 watt/m2 | 2 mph | W | 94 % | 30.093 in Hg | 0 in |
| 09/01/2026 03:15 AM | 70 °F | 70 °F | 71 °F | 71 °F | 71.8 °F | 0 watt/m2 | 2 mph | NW | 93 % | 30.089 in Hg | 0 in |
| 09/01/2026 03:00 AM | 71 °F | 70 °F | 71 °F | 72 °F | 71.9 °F | 0 watt/m2 | 3 mph | W | 93 % | 30.095 in Hg | 0 in |
| 09/01/2026 02:45 AM | 71 °F | 71 °F | 71 °F | 72 °F | 72 °F | 0 watt/m2 | 3 mph | WSW | 93 % | 30.108 in Hg | 0 in |
| 09/01/2026 02:30 AM | 71 °F | 71 °F | 71 °F | 72 °F | 72 °F | 0 watt/m2 | 3 mph | W | 93 % | 30.107 in Hg | 0 in |
| 09/01/2026 02:15 AM | 71 °F | 71 °F | 71 °F | 72 °F | 71.8 °F | 0 watt/m2 | 3 mph | WSW | 93 % | 30.108 in Hg | 0 in |
| 09/01/2026 02:00 AM | 71 °F | 71 °F | 71 °F | 72 °F | 71.7 °F | 0 watt/m2 | 3 mph | W | 92 % | 30.11 in Hg | 0 in |
| 09/01/2026 01:45 AM | 71 °F | 71 °F | 72 °F | 72 °F | 72 °F | 0 watt/m2 | 3 mph | W | 92 % | 30.115 in Hg | 0 in |
| 09/01/2026 01:30 AM | 71 °F | 71 °F | 72 °F | 72 °F | 72.4 °F | 0 watt/m2 | 3 mph | W | 91 % | 30.119 in Hg | 0 in |